Year,Month,Day,Hour,Minute,Value (Times are PST for temperature in C)
2014,02,19,14,35,7.50
2014,02,19,14,36,7.50
2014,02,19,14,37,7.50
2014,02,19,14,38,7.50
2014,02,19,14,39,7.50
2014,02,19,14,40,7.50
2014,02,19,14,41,7.50
2014,02,19,14,42,7.60
2014,02,19,14,43,7.70
2014,02,19,14,44,7.80
2014,02,19,14,45,7.90
2014,02,19,14,46,7.90
2014,02,19,14,47,7.90
2014,02,19,14,48,7.90
2014,02,19,14,49,7.80
2014,02,19,14,50,7.70
2014,02,19,14,51,7.60
2014,02,19,14,52,7.50
2014,02,19,14,53,7.40
2014,02,19,14,54,7.30
2014,02,19,14,55,7.20
2014,02,19,14,56,7.20
2014,02,19,14,57,7.10
2014,02,19,14,58,7.10
2014,02,19,14,59,7.10
2014,02,19,15,00,7.00
2014,02,19,15,01,7.00
2014,02,19,15,02,6.90
2014,02,19,15,03,6.90
2014,02,19,15,04,6.90
2014,02,19,15,05,6.90
2014,02,19,15,06,6.90
2014,02,19,15,07,6.90
2014,02,19,15,08,6.90
2014,02,19,15,09,7.00
2014,02,19,15,10,7.00
2014,02,19,15,11,7.10
2014,02,19,15,12,7.10
2014,02,19,15,13,7.10
2014,02,19,15,14,7.00
2014,02,19,15,15,6.90
2014,02,19,15,16,6.90
2014,02,19,15,17,6.90
2014,02,19,15,18,6.90
2014,02,19,15,19,6.80
2014,02,19,15,20,6.80
2014,02,19,15,21,6.80
2014,02,19,15,22,6.80
2014,02,19,15,23,6.80
2014,02,19,15,24,6.80
2014,02,19,15,25,6.80
2014,02,19,15,26,6.80
2014,02,19,15,27,6.80
2014,02,19,15,28,6.80
2014,02,19,15,29,6.80
2014,02,19,15,30,6.80
2014,02,19,15,31,6.80
2014,02,19,15,32,6.80
2014,02,19,15,33,6.80
2014,02,19,15,34,6.80
2014,02,19,15,35,6.80
2014,02,19,15,36,6.80
2014,02,19,15,37,6.80
2014,02,19,15,38,6.70
2014,02,19,15,39,6.70
2014,02,19,15,40,6.70
2014,02,19,15,41,6.70
2014,02,19,15,42,6.60
2014,02,19,15,43,6.60
2014,02,19,15,44,6.60
2014,02,19,15,45,6.50
2014,02,19,15,46,6.50
2014,02,19,15,47,6.40
2014,02,19,15,48,6.40
2014,02,19,15,49,6.40
2014,02,19,15,50,6.40
2014,02,19,15,51,6.40
2014,02,19,15,52,6.30
2014,02,19,15,53,6.40
2014,02,19,15,54,6.40
2014,02,19,15,55,6.40
2014,02,19,15,56,6.40
2014,02,19,15,57,6.40
2014,02,19,15,58,6.40
2014,02,19,15,59,6.40
2014,02,19,16,00,6.40
2014,02,19,16,01,6.40
2014,02,19,16,02,6.40
2014,02,19,16,03,6.40
2014,02,19,16,04,6.40
2014,02,19,16,05,6.40
2014,02,19,16,06,6.40
2014,02,19,16,07,6.40
2014,02,19,16,08,6.30
2014,02,19,16,09,6.30
2014,02,19,16,10,6.30
2014,02,19,16,11,6.30
2014,02,19,16,12,6.30
2014,02,19,16,13,6.30
2014,02,19,16,14,6.30
2014,02,19,16,15,6.30
2014,02,19,16,16,6.30
2014,02,19,16,17,6.20
2014,02,19,16,18,6.20
2014,02,19,16,19,6.20
2014,02,19,16,20,6.20
2014,02,19,16,21,6.10
2014,02,19,16,22,6.10
2014,02,19,16,23,6.10
2014,02,19,16,24,6.10
2014,02,19,16,25,6.00
2014,02,19,16,26,6.00
2014,02,19,16,27,6.00
2014,02,19,16,28,5.90
2014,02,19,16,29,5.90
2014,02,19,16,30,5.90
2014,02,19,16,31,5.90
2014,02,19,16,32,5.90
2014,02,19,16,33,5.80
2014,02,19,16,34,5.80
2014,02,19,16,35,5.80
2014,02,19,16,36,5.80
2014,02,19,16,37,5.80
2014,02,19,16,38,5.70
2014,02,19,16,39,5.70
2014,02,19,16,40,5.70
2014,02,19,16,41,5.70
2014,02,19,16,42,5.70
2014,02,19,16,43,5.60
2014,02,19,16,44,5.60
2014,02,19,16,45,5.60
2014,02,19,16,46,5.60
2014,02,19,16,47,5.60
2014,02,19,16,48,5.60
2014,02,19,16,49,5.60
2014,02,19,16,50,5.60
2014,02,19,16,51,5.60
2014,02,19,16,52,5.50
2014,02,19,16,53,5.50
2014,02,19,16,54,5.50
2014,02,19,16,55,5.50
2014,02,19,16,56,5.50
2014,02,19,16,57,5.40
2014,02,19,16,58,5.40
2014,02,19,16,59,5.40
2014,02,19,17,00,5.40
2014,02,19,17,01,5.40
2014,02,19,17,02,5.40
2014,02,19,17,03,5.30
2014,02,19,17,04,5.30
2014,02,19,17,05,5.30
2014,02,19,17,06,5.30
2014,02,19,17,07,5.30
2014,02,19,17,08,5.30
2014,02,19,17,09,5.30
2014,02,19,17,10,5.30
2014,02,19,17,11,5.30
2014,02,19,17,12,5.30
2014,02,19,17,13,5.20
2014,02,19,17,14,5.20
2014,02,19,17,15,5.20
2014,02,19,17,16,5.20
2014,02,19,17,17,5.20
2014,02,19,17,18,5.10
2014,02,19,17,19,5.10
2014,02,19,17,20,5.10
2014,02,19,17,21,5.10
2014,02,19,17,22,5.10
2014,02,19,17,23,5.10
2014,02,19,17,24,5.00
2014,02,19,17,25,5.00
2014,02,19,17,26,5.00
2014,02,19,17,27,5.00
2014,02,19,17,28,5.00
2014,02,19,17,29,5.00
2014,02,19,17,30,5.00
2014,02,19,17,31,5.00
2014,02,19,17,32,5.00
2014,02,19,17,33,5.00
2014,02,19,17,34,5.00
2014,02,19,17,35,5.00
2014,02,19,17,36,5.00
2014,02,19,17,37,4.90
2014,02,19,17,38,4.90
2014,02,19,17,39,4.90
2014,02,19,17,40,4.90
2014,02,19,17,41,4.80
2014,02,19,17,42,4.80
2014,02,19,17,43,4.80
2014,02,19,17,44,4.80
2014,02,19,17,45,4.80
2014,02,19,17,46,4.80
2014,02,19,17,47,4.70
2014,02,19,17,48,4.70
2014,02,19,17,49,4.70
2014,02,19,17,50,4.70
2014,02,19,17,51,4.70
2014,02,19,17,52,4.70
2014,02,19,17,53,4.70
2014,02,19,17,54,4.70
2014,02,19,17,55,4.70
2014,02,19,17,56,4.70
2014,02,19,17,57,4.60
2014,02,19,17,58,4.60
2014,02,19,17,59,4.60
2014,02,19,18,00,4.60
2014,02,19,18,01,4.50
2014,02,19,18,02,4.50
2014,02,19,18,03,4.50
2014,02,19,18,04,4.50
2014,02,19,18,05,4.50
2014,02,19,18,06,4.50
2014,02,19,18,07,4.50
2014,02,19,18,08,4.50
2014,02,19,18,09,4.50
2014,02,19,18,10,4.50
2014,02,19,18,11,4.50
2014,02,19,18,12,4.50
2014,02,19,18,13,4.50
2014,02,19,18,14,4.50
2014,02,19,18,15,4.50
2014,02,19,18,16,4.50
2014,02,19,18,17,4.50
2014,02,19,18,18,4.50
2014,02,19,18,19,4.50
2014,02,19,18,20,4.40
2014,02,19,18,21,4.40
2014,02,19,18,22,4.40
2014,02,19,18,23,4.40
2014,02,19,18,24,4.40
2014,02,19,18,25,4.30
2014,02,19,18,26,4.30
2014,02,19,18,27,4.30
2014,02,19,18,28,4.30
2014,02,19,18,29,4.30
2014,02,19,18,30,4.30
2014,02,19,18,31,4.20
2014,02,19,18,32,4.20
2014,02,19,18,33,4.20
2014,02,19,18,34,4.20
2014,02,19,18,35,4.20
2014,02,19,18,36,4.20
2014,02,19,18,37,4.20
2014,02,19,18,38,4.20
2014,02,19,18,39,4.20
2014,02,19,18,40,4.20
2014,02,19,18,41,4.20
2014,02,19,18,42,4.20
2014,02,19,18,43,4.20
2014,02,19,18,44,4.20
2014,02,19,18,45,4.20
2014,02,19,18,46,4.20
2014,02,19,18,47,4.20
2014,02,19,18,48,4.20
2014,02,19,18,49,4.10
2014,02,19,18,50,4.10
2014,02,19,18,51,4.10
2014,02,19,18,52,4.10
2014,02,19,18,53,4.10
2014,02,19,18,54,4.10
2014,02,19,18,55,4.10
2014,02,19,18,56,4.10
2014,02,19,18,57,4.10
2014,02,19,18,58,4.10
2014,02,19,18,59,4.10
2014,02,19,19,00,4.10
2014,02,19,19,01,4.10
2014,02,19,19,02,4.10
2014,02,19,19,03,4.10
2014,02,19,19,04,4.10
2014,02,19,19,05,4.10
2014,02,19,19,06,4.10
2014,02,19,19,07,4.00
2014,02,19,19,08,4.00
2014,02,19,19,09,3.90
2014,02,19,19,10,3.90
2014,02,19,19,11,3.80
2014,02,19,19,12,3.80
2014,02,19,19,13,3.70
2014,02,19,19,14,3.70
2014,02,19,19,15,3.70
2014,02,19,19,16,3.80
2014,02,19,19,17,3.80
2014,02,19,19,18,3.80
2014,02,19,19,19,3.90
2014,02,19,19,20,3.90
2014,02,19,19,21,4.00
2014,02,19,19,22,4.00
2014,02,19,19,23,4.10
2014,02,19,19,24,4.10
2014,02,19,19,25,4.10
2014,02,19,19,26,4.10
2014,02,19,19,27,4.10
2014,02,19,19,28,4.10
2014,02,19,19,29,4.10
2014,02,19,19,30,4.10
2014,02,19,19,31,4.20
2014,02,19,19,32,4.20
2014,02,19,19,33,4.20
2014,02,19,19,34,4.20
2014,02,19,19,35,4.20
2014,02,19,19,36,4.20
2014,02,19,19,37,4.20
2014,02,19,19,38,4.20
2014,02,19,19,39,4.20
2014,02,19,19,40,4.20
2014,02,19,19,41,4.20
2014,02,19,19,42,4.20
2014,02,19,19,43,4.20
2014,02,19,19,44,4.20
2014,02,19,19,45,4.20
2014,02,19,19,46,4.20
2014,02,19,19,47,4.20
2014,02,19,19,48,4.20
2014,02,19,19,49,4.10
2014,02,19,19,50,4.10
2014,02,19,19,51,4.10
2014,02,19,19,52,4.20
2014,02,19,19,53,4.20
2014,02,19,19,54,4.20
2014,02,19,19,55,4.20
2014,02,19,19,56,4.10
2014,02,19,19,57,4.10
2014,02,19,19,58,4.10
2014,02,19,19,59,4.10
2014,02,19,20,00,4.10
2014,02,19,20,01,4.10
2014,02,19,20,02,4.10
2014,02,19,20,03,4.10
2014,02,19,20,04,4.10
2014,02,19,20,05,4.10
2014,02,19,20,06,4.10
2014,02,19,20,07,4.10
2014,02,19,20,08,4.10
2014,02,19,20,09,4.10
2014,02,19,20,10,4.10
2014,02,19,20,11,4.10
2014,02,19,20,12,4.10
2014,02,19,20,13,4.10
2014,02,19,20,14,4.20
2014,02,19,20,15,4.20
2014,02,19,20,16,4.20
2014,02,19,20,17,4.10
2014,02,19,20,18,4.10
2014,02,19,20,19,4.10
2014,02,19,20,20,4.10
2014,02,19,20,21,4.10
2014,02,19,20,22,4.10
2014,02,19,20,23,4.10
2014,02,19,20,24,4.10
2014,02,19,20,25,4.10
2014,02,19,20,26,4.10
2014,02,19,20,27,4.10
2014,02,19,20,28,4.10
2014,02,19,20,29,4.10
2014,02,19,20,30,4.10
2014,02,19,20,31,4.10
2014,02,19,20,32,4.10
2014,02,19,20,33,4.10
2014,02,19,20,34,4.10
2014,02,19,20,35,4.10
2014,02,19,20,36,4.10
2014,02,19,20,37,4.10
2014,02,19,20,38,4.10
2014,02,19,20,39,4.10
2014,02,19,20,40,4.10
2014,02,19,20,41,4.10
2014,02,19,20,42,4.10
2014,02,19,20,43,4.10
2014,02,19,20,44,4.10
2014,02,19,20,45,4.00
2014,02,19,20,46,4.00
2014,02,19,20,47,4.00
2014,02,19,20,48,4.00
2014,02,19,20,49,4.00
2014,02,19,20,50,4.00
2014,02,19,20,51,4.00
2014,02,19,20,52,4.00
2014,02,19,20,53,3.90
2014,02,19,20,54,3.90
2014,02,19,20,55,3.90
2014,02,19,20,56,3.90
2014,02,19,20,57,3.90
2014,02,19,20,58,3.90
2014,02,19,20,59,3.90
2014,02,19,21,00,3.90
2014,02,19,21,01,3.90
2014,02,19,21,02,3.80
2014,02,19,21,03,3.80
2014,02,19,21,04,3.80
2014,02,19,21,05,3.80
2014,02,19,21,06,3.80
2014,02,19,21,07,3.80
2014,02,19,21,08,3.80
2014,02,19,21,09,3.70
2014,02,19,21,10,3.70
2014,02,19,21,11,3.70
2014,02,19,21,12,3.70
2014,02,19,21,13,3.70
2014,02,19,21,14,3.70
2014,02,19,21,15,3.70
2014,02,19,21,16,3.70
2014,02,19,21,17,3.70
2014,02,19,21,18,3.70
2014,02,19,21,19,3.60
2014,02,19,21,20,3.60
2014,02,19,21,21,3.60
2014,02,19,21,22,3.60
2014,02,19,21,23,3.60
2014,02,19,21,24,3.60
2014,02,19,21,25,3.60
2014,02,19,21,26,3.60
2014,02,19,21,27,3.60
2014,02,19,21,28,3.60
2014,02,19,21,29,3.60
2014,02,19,21,30,3.60
2014,02,19,21,31,3.60
2014,02,19,21,32,3.60
2014,02,19,21,33,3.60
2014,02,19,21,34,3.60
2014,02,19,21,35,3.50
2014,02,19,21,36,3.50
2014,02,19,21,37,3.50
2014,02,19,21,38,3.50
2014,02,19,21,39,3.50
2014,02,19,21,40,3.50
2014,02,19,21,41,3.50
2014,02,19,21,42,3.50
2014,02,19,21,43,3.50
2014,02,19,21,44,3.50
2014,02,19,21,45,3.50
2014,02,19,21,46,3.40
2014,02,19,21,47,3.40
2014,02,19,21,48,3.40
2014,02,19,21,49,3.40
2014,02,19,21,50,3.40
2014,02,19,21,51,3.40
2014,02,19,21,52,3.30
2014,02,19,21,53,3.30
2014,02,19,21,54,3.30
2014,02,19,21,55,3.30
2014,02,19,21,56,3.30
2014,02,19,21,57,3.30
2014,02,19,21,58,3.30
2014,02,19,21,59,3.20
2014,02,19,22,00,3.30
2014,02,19,22,01,3.30
2014,02,19,22,02,3.20
2014,02,19,22,03,3.20
2014,02,19,22,04,3.20
2014,02,19,22,05,3.20
2014,02,19,22,06,3.20
2014,02,19,22,07,3.20
2014,02,19,22,08,3.10
2014,02,19,22,09,3.10
2014,02,19,22,10,3.20
2014,02,19,22,11,3.10
2014,02,19,22,12,3.20
2014,02,19,22,13,3.20
2014,02,19,22,14,3.20
2014,02,19,22,15,3.20
2014,02,19,22,16,3.20
2014,02,19,22,17,3.20
2014,02,19,22,18,3.20
2014,02,19,22,19,3.20
2014,02,19,22,20,3.20
2014,02,19,22,21,3.20
2014,02,19,22,22,3.20
2014,02,19,22,23,3.20
2014,02,19,22,24,3.10
2014,02,19,22,25,3.10
2014,02,19,22,26,3.10
2014,02,19,22,27,3.10
2014,02,19,22,28,3.00
2014,02,19,22,29,3.00
2014,02,19,22,30,3.00
2014,02,19,22,31,2.90
2014,02,19,22,32,2.90
2014,02,19,22,33,2.90
2014,02,19,22,34,2.90
2014,02,19,22,35,2.90
2014,02,19,22,36,2.90
2014,02,19,22,37,2.90
2014,02,19,22,38,2.90
2014,02,19,22,39,2.80
2014,02,19,22,40,2.80
2014,02,19,22,41,2.80
2014,02,19,22,42,2.80
2014,02,19,22,43,2.80
2014,02,19,22,44,2.80
2014,02,19,22,45,2.80
2014,02,19,22,46,2.70
2014,02,19,22,47,2.70
2014,02,19,22,48,2.70
2014,02,19,22,49,2.70
2014,02,19,22,50,2.70
2014,02,19,22,51,2.70
2014,02,19,22,52,2.70
2014,02,19,22,53,2.60
2014,02,19,22,54,2.60
2014,02,19,22,55,2.60
2014,02,19,22,56,2.60
2014,02,19,22,57,2.60
2014,02,19,22,58,2.60
2014,02,19,22,59,2.60
2014,02,19,23,00,2.50
2014,02,19,23,01,2.50
2014,02,19,23,02,2.50
2014,02,19,23,03,2.40
2014,02,19,23,04,2.40
2014,02,19,23,05,2.40
2014,02,19,23,06,2.40
2014,02,19,23,07,2.40
2014,02,19,23,08,2.30
2014,02,19,23,09,2.30
2014,02,19,23,10,2.30
2014,02,19,23,11,2.30
2014,02,19,23,12,2.30
2014,02,19,23,13,2.30
2014,02,19,23,14,2.30
2014,02,19,23,15,2.30
2014,02,19,23,16,2.30
2014,02,19,23,17,2.30
2014,02,19,23,18,2.20
2014,02,19,23,19,2.20
2014,02,19,23,20,2.20
2014,02,19,23,21,2.20
2014,02,19,23,22,2.20
2014,02,19,23,23,2.10
2014,02,19,23,24,2.10
2014,02,19,23,25,2.00
2014,02,19,23,26,2.00
2014,02,19,23,27,1.90
2014,02,19,23,28,1.90
2014,02,19,23,29,1.90
2014,02,19,23,30,1.80
2014,02,19,23,31,1.80
2014,02,19,23,32,1.70
2014,02,19,23,33,1.70
2014,02,19,23,34,1.70
2014,02,19,23,35,1.60
2014,02,19,23,36,1.60
2014,02,19,23,37,1.60
2014,02,19,23,38,1.60
2014,02,19,23,39,1.50
2014,02,19,23,40,1.50
2014,02,19,23,41,1.40
2014,02,19,23,42,1.40
2014,02,19,23,43,1.40
2014,02,19,23,44,1.40
2014,02,19,23,45,1.30
2014,02,19,23,46,1.30
2014,02,19,23,47,1.30
2014,02,19,23,48,1.30
2014,02,19,23,49,1.30
2014,02,19,23,50,1.30
2014,02,19,23,51,1.30
2014,02,19,23,52,1.30
2014,02,19,23,53,1.30
2014,02,19,23,54,1.30
2014,02,19,23,55,1.30
2014,02,19,23,56,1.30
2014,02,19,23,57,1.30
2014,02,19,23,58,1.40
2014,02,19,23,59,1.40
